sat.trackr.live / text

‹ back to catalog

STARLINK-30280

NORAD 57643 · 2023-122M

PAYLOAD ACTIVE UNKNOWN

§ Identity

Operator
Country
US
Launch date
2023-08-17
Launch site
AFETR
Launch vehicle
Mass (kg)
RCS (m²)

Purposes: comms

External: N2YO · Heavens-Above · Gunter

§ Orbital elements

Epoch: 2026-09-19T22:01:16.500576Z

Period
94.27 min
Inclination
43.0029°
Eccentricity
0.0001366
Mean motion
15.27575937 rev/d
Perigee alt
482.1 km
Apogee alt
484.0 km
Semi-major
6,861.2 km
B*
9.7491e-6
RAAN
75.4308°
Arg perigee
268.5761°
Mean anomaly
91.4934°
Rev number
17,191

§ Raw data

STARLINK-302801 57643U 23122M   26262.91755209  .00000006  00000+0  97491-5 0  99912 57643  43.0029  75.4308 0001366 268.5761  91.4934 15.27575937171913

JSON: /api/v1/satellites/57643 · /tle

For live sub-satellite position, see the globe view (requires WebGL).

§ Visibility from observer

Set your observer location to see the next 7 days of passes ≥ 10°. The values pass through the URL so the page stays shareable.

No JS? Fill the form by hand. The geolocation button needs JavaScript.